This is the latest recevied weather packets stored in our database for station/object PHNL. If no packets are shown the sender has not sent any weather packets the latest 1 day(s).
| Time | Temp. | Humidity | Pressure | Rain* | Wind** | Luminosity | Snow |
|---|---|---|---|---|---|---|---|
| 1778103826 | - | - | 1011.2 hPa | - | - | - | - |
| 1778099626 | 26.67° C | 57% | 1016.9 hPa | - | - | - | - |
| 1778099028 | 26.67° C | 57% | 1016.9 hPa | - | - | - | - |
| 1778097229 | 26.67° C | 54% | 1016.3 hPa | - | - | - | - |
| 1778093628 | 25.56° C | 54% | 1016.6 hPa | - | - | - | - |
| 1778091228 | 25.56° C | 54% | 1016.6 hPa | - | - | - | - |
| 1778088229 | 22.78° C | 64% | 1015.9 hPa | - | - | - | - |
| 1778085827 | 22.78° C | 69% | 1015.2 hPa | - | - | - | - |
| 1778083551 | 22.78° C | 69% | 1015.2 hPa | - | - | - | - |
| 1778082833 | 21.67° C | 73% | 1014.9 hPa | - | - | - | - |
| 1778074422 | 21.67° C | 73% | 1014.6 hPa | - | - | - | - |
| 1778073824 | 21.67° C | 73% | 1014.6 hPa | - | - | - | - |
| 1778073227 | 21.67° C | 73% | 1014.6 hPa | - | - | - | - |
| 1778072628 | 21.67° C | 73% | 1014.6 hPa | - | - | - | - |
| 1778070227 | 21.67° C | 73% | 1015.2 hPa | - | - | - | - |
| 1778068426 | 22.78° C | 73% | 1016.3 hPa | - | - | - | - |
| 1778067224 | 22.78° C | 73% | 1016.3 hPa | - | - | - | - |
| 1778066629 | 22.78° C | 73% | 1016.3 hPa | - | - | - | - |
| 1778066028 | 22.78° C | 73% | 1016.3 hPa | - | - | - | - |
| 1778065425 | 22.78° C | 73% | 1016.3 hPa | - | - | - | - |
| 1778062426 | 22.78° C | 78% | 1016.9 hPa | - | - | - | - |
| 1778060027 | 23.89° C | 73% | 1016.9 hPa | - | - | - | - |
| 1778058826 | 23.89° C | 73% | 1016.9 hPa | - | - | - | - |
| 1778058229 | 23.89° C | 73% | 1016.9 hPa | - | - | - | - |
| 1778057031 | 23.89° C | 73% | 1016.6 hPa | - | - | - | - |
* Rain since midnight (hover to see other rain measurements)
** Current wind speed in m/s (hover to see current wind gust speed)